User: anonymous   Login
Location: Poughquag
(41.6090°N, 73.6820°W)
Time: 16:27:07
(UTC-04:00)
Language:

A-11 Canister half - Orbit

View from above orbital plane
View from above orbital plane
View from above satellite
View from above satellite

Ground track
Ground track

The orbit data is extracted from the following two-line orbital elements,

1 00051U 60009C   24206.52648090 -.00000138  00000-0 -52237-3 0  9995
2 00051  47.2148  32.6298 0106201 297.2285  61.7715 12.18329421846726
Epoch (UTC): 24 July 2024 12:38:07
Eccentricity: 0.0106201
inclination: 47.2148°
perigee height: 1515 km
apogee height: 1684 km
right ascension of ascending node: 32.6298°
argument of perigee: 297.2285°
revolutions per day: 12.18329421
mean anomaly at epoch: 61.7715°
orbit number at epoch: 84672

The dashed part of the orbit path shows where the satellite is in the earth's shadow,  

DLR